SCP
0 0 0 0 0 0 0 0 0 0 0 0 0 1 1 1 1 1 1 1 1 1 2 2 2 2 2 1 1 2 2 2 2 2 2 2 2 2 2 2 2 2 2 2
0 0 0 0 0 0 0 0 0 0 0 0 1 1 1 1 1 1 1 1 1 1 2 2 2 2 2 2 2 2 2 2 2 2 2 2 2 2 2 2 2 2 2 2
0 0 0 0 0 0 0 0 0 0 0 1 1 1 1 1 1 1 1 1 1 1 2 2 2 2 2 2 2 3 3 3 3 3 3 2 2 2 2 2 2 2 2 2
0 0 0 0 0 0 0 0 0 0 0 1 1 1 1 1 1 1 1 1 1 1 2 2 2 2 3 3 3 3 3 3 3 3 3 3 3 2 2 2 2 2 2 2
0 0 0 0 0 0 0 0 0 0 0 1 1 1 1 1 1 1 1 2 2 2 2 2 2 3 3 3 3 3 3 3 3 3 3 3 3 3 2 2 2 2 2 2
0 0 0 0 0 0 0 0 0 0 1 1 1 1 1 1 1 1 2 2 2 2 2 2 3 3 3 3 3 3 3 3 3 3 3 3 3 3 2 2 2 2 2 2
0 0 0 0 0 0 0 1 1 1 1 1 1 1 1 1 1 1 1 2 2 2 2 2 3 3 3 3 3 3 3 3 3 3 3 3 3 3 2 2 2 2 2 2
0 0 0 0 0 0 1 1 1 1 1 1 1 1 1 1 1 1 1 2 2 2 2 2 3 3 3 3 2 2 2 2 3 3 3 3 3 2 2 2 2 2 2 2
0 0 0 1 1 1 1 1 1 1 1 1 1 1 1 1 1 1 1 2 2 2 2 2 3 3 3 2 2 2 2 2 2 2 2 2 2 2 2 2 1 1 1 1
0 1 1 1 1 1 1 1 1 1 1 1 1 1 1 1 1 1 1 2 2 2 2 2 2 2 2 2 2 2 2 2 2 2 2 2 2 2 1 1 1 1 1 1
1 1 1 1 1 1 1 1 1 1 1 1 2 2 2 2 1 1 1 1 2 2 2 2 2 2 2 1 1 1 1 1 1 1 1 1 1 1 1 1 1 1 1 1
1 1 1 1 1 1 1 1 1 1 1 2 2 2 2 1 1 1 1 1 1 1 1 1 1 1 1 1 1 1 1 1 1 1 1 1 1 1 1 1 0 0 0 0
0 0 0 0 1 1 1 1 1 1 2 2 2 1 1 1 1 1 1 1 1 1 1 1 1 1 1 1 1 1 1 1 1 1 1 1 1 1 1 0 0 0 0 0
0 0 0 0 1 1 1 1 1 1 1 1 1 1 1 1 1 1 1 1 1 1 1 1 1 1 1 1 1 1 1 1 1 1 1 1 1 1 1 1 0 0 0 0
0 0 1 1 1 1 1 1 1 1 1 1 1 1 1 1 1 1 1 1 1 1 1 1 1 1 1 1 1 1 1 1 1 1 1 1 1 1 1 1 1 0 0 0
0 0 1 1 1 1 1 1 1 1 1 1 1 1 1 1 1 1 1 1 1 1 1 1 1 1 1 1 1 1 1 1 1 1 1 1 1 1 1 1 1 0 0 0
0 1 1 1 1 1 1 1 1 1 1 1 1 1 1 1 1 1 1 1 1 1 1 1 1 1 1 1 1 1 1 1 1 1 1 1 1 1 1 0 0 0 0 0
1 1 1 1 1 1 1 1 0 0 1 1 1 1 1 1 1 1 1 1 1 1 1 1 1 1 1 1 1 1 1 1 1 1 1 1 1 0 0 0 0 0 0 0
1 1 1 1 1 1 1 0 0 0 0 1 1 1 1 1 1 1 1 1 1 1 1 1 1 1 1 1 1 1 0 0 0 0 1 1 1 0 0 0 0 0 0 0
0 1 1 1 1 1 1 0 0 0 0 0 0 0 0 0 0 0 0 0 0 1 1 1 1 1 1 1 1 0 0 0 0 0 1 1 0 0 0 0 0 0 0 0
0 1 1 1 1 1 0 0 0 0 0 0 0 0 0 0 0 0 0 0 0 0 1 1 1 1 1 1 0 0 0 0 0 0 0 0 0 0 0 0 0 0 0 0
1 1 1 1 1 1 1 0 0 0 0 0 0 0 0 0 0 0 0 0 0 0 0 0 0 0 0 0 0 0 0 0 0 0 0 0 0 0 0 0 0 0 0 0
1 1 1 1 1 1 1 1 1 0 0 0 0 0 0 0 0 0 0 0 0 0 0 0 0 0 0 0 0 0 0 0 0 0 0 0 0 0 0 0 0 0 0 0
1 1 1 1 0 0 1 1 1 1 1 0 0 0 0 0 0 0 0 0 0 0 0 0 0 0 0 0 0 0 0 0 0 0 0 0 0 0 0 0 0 0 0 0
1 1 1 1 0 0 0 0 0 0 0 0 0 0 0 0 0 0 0 0 0 0 0 0 0 0 0 0 0 0 0 0 0 0 0 0 0 0 0 0 0 0 0 0
0 0 0 0 0 0 0 0 0 0 0 0 0 0 0 0 0 0 0 0 0 0 0 0 0 0 0 0 0 0 0 0 0 0 0 0 0 0 0 0 0 0 0 0
0 0 0 0 0 0 0 0 0 0 0 0 0 0 0 0 0 0 0 0 0 0 0 0 0 0 0 0 0 0 0 0 0 0 0 0 0 0 0 0 0 0 0 0
Wind_Speed
14 15 13 11 12 14 13 11 9 4 4 4 2 2 4 6 5 5 5 5 4 5 4 4 3 3 3 4 4 4 5 6 6 5 4 4 3 4 4 3 4 3 3 2
14 16 15 13 14 15 13 10 9 7 6 3 1 2 4 4 5 5 4 4 4 4 4 3 3 3 3 3 3 4 4 4 4 4 4 4 3 3 3 3 3 3 3 2
13 14 16 16 13 13 10 9 8 7 5 4 2 1 3 4 4 4 3 3 3 2 2 3 3 3 3 2 2 3 3 3 3 4 4 3 3 3 3 3 3 3 3 3
12 12 17 11 8 9 8 7 5 3 3 2 3 2 2 3 4 3 3 3 2 2 2 2 3 3 2 3 3 3 3 3 3 3 3 3 3 2 2 2 2 2 2 2
10 14 14 11 8 7 7 5 3 1 0 2 2 2 3 3 3 2 3 2 2 2 2 2 1 2 3 3 3 3 3 3 3 3 3 3 3 3 2 2 2 2 2 2
11 13 12 7 5 5 6 6 1 2 2 2 0 1 2 3 3 3 3 2 2 1 1 2 2 2 2 3 3 2 2 2 3 3 3 3 3 2 2 2 2 2 2 2
14 14 10 5 5 5 7 1 4 3 3 2 3 2 3 3 3 3 3 3 2 1 2 2 2 2 2 2 2 2 2 2 2 3 3 3 3 2 2 2 2 2 2 2
12 14 8 4 4 2 2 4 4 3 3 3 3 3 3 3 3 2 3 3 2 2 2 2 2 2 2 2 2 2 2 2 2 2 2 3 3 3 3 2 3 2 2 2
6 4 2 3 3 3 3 2 3 3 3 2 1 1 2 2 2 2 2 3 3 3 3 2 2 2 2 2 3 4 3 3 3 3 2 2 3 3 2 2 2 2 2 2
5 3 1 1 3 4 3 2 3 2 1 1 0 1 2 2 2 2 2 2 2 3 3 3 2 2 2 3 3 3 3 3 3 3 3 2 2 2 1 1 1 1 1 1
6 4 3 1 2 3 4 3 3 2 2 2 1 1 1 2 2 2 2 2 2 2 3 3 2 3 2 3 3 3 3 3 2 3 3 3 3 2 2 1 0 0 0 1
3 2 2 3 4 4 3 3 3 2 2 2 1 1 2 1 2 2 2 2 2 2 2 2 2 2 2 2 2 2 2 2 2 3 3 3 4 3 4 3 2 2 2 2
5 6 4 5 4 4 3 2 2 2 1 1 1 2 1 2 2 2 2 2 2 2 2 2 2 2 1 2 3 2 1 1 1 1 2 3 3 3 2 2 2 1 2 3
5 6 5 5 4 4 3 2 2 2 1 1 1 1 1 1 1 1 2 2 2 2 2 2 2 2 2 2 3 2 2 2 1 1 2 2 2 3 3 3 3 2 1 3
5 5 5 4 3 3 3 2 2 1 1 1 1 1 1 1 1 1 1 2 2 2 1 1 1 1 2 2 3 2 1 1 1 1 1 2 2 2 2 3 3 3 3 2
6 6 5 4 3 3 3 2 2 1 1 0 0 0 1 1 1 0 1 1 1 1 1 1 1 1 2 2 3 2 1 1 2 2 1 1 1 1 1 1 2 2 2 2
7 6 4 4 3 3 3 3 2 1 1 0 1 0 1 1 1 1 1 1 1 1 1 1 1 1 1 2 2 2 2 2 3 2 1 1 1 1 1 1 1 1 2 3
6 5 4 3 3 2 3 3 2 1 1 1 0 0 0 1 1 0 1 1 1 1 1 1 1 1 1 1 2 2 2 2 2 2 1 1 1 2 2 1 1 1 1 2
6 5 4 3 3 3 3 3 2 1 2 2 2 1 1 1 1 1 1 1 1 2 2 1 1 2 2 2 2 2 3 2 2 2 2 2 2 3 2 2 1 1 1 2
4 4 4 3 3 3 3 3 1 1 2 2 1 1 1 1 1 1 1 1 1 1 2 2 2 2 2 2 2 3 3 3 2 2 2 2 2 3 2 1 1 1 1 1
3 3 3 2 2 2 2 2 1 2 2 2 1 2 2 2 2 2 2 2 1 1 1 2 2 1 1 2 3 4 3 2 2 2 2 2 2 2 2 1 1 1 1 1
2 3 3 2 2 2 2 2 1 1 2 2 3 2 2 2 3 2 2 1 1 2 2 3 2 1 1 3 4 3 2 2 2 2 2 2 2 2 1 1 1 1 0 0
2 3 3 3 2 2 2 2 1 1 2 2 2 3 2 2 2 2 2 1 2 2 2 1 2 3 1 2 3 2 2 2 2 2 2 2 2 1 0 1 1 0 0 0
3 3 3 2 2 1 1 1 1 1 1 1 2 2 2 2 1 1 1 3 4 4 2 3 3 1 1 2 2 1 2 2 1 1 2 1 1 1 1 1 1 1 1 1
3 3 3 3 3 2 2 1 1 2 2 2 2 2 2 1 1 1 2 3 4 3 3 3 2 2 2 3 2 1 2 1 1 1 1 1 1 1 1 1 1 1 1 1
3 3 3 3 2 1 2 2 2 1 1 1 1 1 1 1 1 1 2 3 4 3 2 3 4 4 3 2 2 2 2 1 1 1 0 0 0 0 1 1 1 1 1 2
4 3 3 2 2 2 2 2 1 1 1 1 1 1 1 1 1 1 1 2 2 2 2 2 3 3 3 2 2 2 2 1 1 1 0 0 0 0 0 1 1 1 1 1
Wind_Direction
264 268 269 253 250 246 248 259 268 261 248 246 231 126 121 127 137 140 135 135 130 129 130 136 140 157 174 180 180 185 182 188 188 187 189 183 192 198 198 202 210 201 204 198
264 263 264 263 260 258 246 242 244 240 241 230 173 101 113 127 142 139 143 141 133 130 141 150 157 171 174 181 176 170 179 183 170 174 183 186 192 193 197 197 203 201 199 186
268 264 263 253 247 255 256 252 245 239 224 203 165 143 143 151 142 139 142 126 121 133 151 162 170 166 171 170 163 159 162 164 163 174 183 189 192 186 199 202 200 195 186 179
263 263 256 257 254 248 255 266 270 240 180 170 122 91 89 114 125 129 126 126 126 137 143 163 175 167 158 157 158 162 162 171 168 172 178 171 175 179 189 189 191 187 182 180
262 255 250 258 258 239 241 253 287 297 90 115 114 136 105 86 89 113 112 103 113 133 145 127 123 145 149 154 155 163 168 171 171 176 174 171 180 176 173 178 183 183 165 161
254 263 261 251 267 284 258 234 324 34 66 79 43 201 99 79 75 80 87 93 99 112 104 116 118 121 145 155 149 155 168 173 169 167 169 168 172 168 163 172 174 176 175 169
246 255 257 294 300 275 251 280 18 34 52 54 46 37 76 80 81 93 100 98 90 104 105 95 100 119 128 141 149 143 143 149 158 166 165 153 154 156 155 170 169 180 183 174
239 248 251 343 308 332 34 35 21 30 58 64 56 72 73 91 100 104 113 110 110 104 100 95 100 120 132 132 118 110 112 120 124 132 155 149 155 160 167 172 176 189 191 175
245 249 47 20 43 42 45 31 350 349 33 69 87 112 111 104 100 108 92 98 95 99 92 94 114 139 143 116 112 118 119 119 117 115 110 121 139 148 159 172 194 188 186 180
265 204 184 66 49 9 353 340 314 342 355 327 281 136 129 129 116 97 86 103 102 103 102 86 85 96 114 111 104 112 123 132 139 134 125 112 112 117 120 134 187 184 189 172
259 271 271 321 357 338 338 334 335 347 315 317 289 168 143 142 132 117 99 97 105 111 106 94 89 99 103 115 126 135 143 148 148 135 128 116 103 82 106 87 96 217 151 131
270 317 314 311 328 321 326 321 327 341 350 343 325 111 117 114 100 106 119 107 105 114 111 106 99 101 95 114 133 142 152 162 168 158 145 143 140 123 62 86 104 119 107 112
320 325 312 309 327 331 331 333 348 6 26 4 52 100 111 108 107 119 136 134 147 144 129 122 119 119 110 122 141 150 155 163 171 158 148 158 161 156 149 123 108 123 144 142
320 322 318 318 326 341 340 342 342 360 33 61 69 89 109 124 139 141 134 140 143 137 136 140 137 134 132 133 138 162 185 178 186 176 168 171 175 178 177 177 174 160 169 182
313 306 297 299 319 334 333 327 317 327 29 70 108 142 165 156 138 126 131 147 137 140 145 141 132 126 131 144 150 169 204 183 204 224 188 173 197 204 194 180 176 162 160 172
291 283 281 287 300 312 312 308 299 292 299 82 140 166 126 115 111 111 125 133 147 158 141 140 139 141 160 173 170 173 166 196 221 229 209 178 198 211 220 191 181 166 155 145
274 268 266 268 271 287 293 291 284 293 320 18 90 111 141 140 151 162 171 173 162 150 145 155 182 170 181 193 210 208 190 186 208 224 199 185 222 225 231 225 181 193 152 147
263 264 266 271 278 276 283 287 292 310 326 303 236 222 192 183 200 154 162 173 175 175 179 175 170 178 190 198 233 248 224 205 212 227 215 239 258 248 225 203 203 173 127 159
257 254 258 261 273 267 259 263 265 253 247 225 203 196 208 216 188 199 202 184 183 199 184 144 169 206 215 204 234 235 236 221 214 220 219 221 240 253 249 234 229 192 197 199
253 255 260 252 257 260 254 256 246 244 244 236 220 208 224 230 230 225 201 224 229 205 166 152 171 206 229 221 244 245 244 238 235 231 230 239 248 252 248 228 211 218 219 212
266 266 263 253 257 265 265 253 230 227 229 218 210 230 239 236 230 235 232 232 160 132 152 162 197 211 231 261 241 240 238 238 245 248 243 247 252 254 259 242 233 228 198 240
282 273 274 274 272 277 282 277 250 231 230 226 223 222 217 217 224 231 242 248 175 152 185 183 175 137 278 264 247 238 238 245 242 238 233 236 248 246 239 240 250 236 155 72
295 291 292 294 290 276 264 265 253 228 220 223 217 199 210 229 234 229 229 222 168 146 191 150 129 129 172 247 260 254 251 255 258 254 249 251 252 248 220 241 267 306 35 10
278 285 279 280 276 249 256 255 258 246 217 208 202 196 213 222 217 228 145 114 114 132 122 103 107 127 214 244 259 272 273 266 262 266 277 299 314 336 6 330 328 3 25 8
255 257 254 252 244 222 209 218 231 230 218 217 206 195 217 223 214 215 130 124 128 146 147 146 157 208 237 250 246 259 280 301 329 338 337 357 352 0 359 4 17 359 27 49
240 243 245 248 253 234 217 208 213 218 210 206 210 197 193 170 162 153 138 145 150 163 174 161 175 206 225 242 248 243 249 241 232 201 167 70 47 35 21 26 4 4 52 59
233 235 230 231 235 228 216 201 196 204 204 190 186 172 153 141 133 141 124 128 148 180 181 175 183 197 205 219 226 234 251 261 263 257 153 141 73 354 29 47 21 48 60 66